This is the latest recevied weather packets stored in our database for station/object N6RDS. If no packets are shown the sender has not sent any weather packets the latest 10 day(s).
| Time | Temp. | Humidity | Pressure | Rain* | Wind** | Luminosity | Snow |
|---|---|---|---|---|---|---|---|
| 1777909831 | 10.56° C | 60% | 1022.8 hPa | 0 mm | - | 144 W/m² | - |
| 1777909527 | 10.56° C | 61% | 1022.7 hPa | 0 mm | - | 206 W/m² | - |
| 1777909225 | 10.56° C | 61% | 1022.9 hPa | 0 mm | - | 190 W/m² | - |
| 1777908923 | 10.56° C | 60% | 1023.1 hPa | 0 mm | - | 209 W/m² | - |
| 1777908621 | 10° C | 61% | 1022.7 hPa | 0 mm | - | 165 W/m² | - |
| 1777908317 | 10° C | 61% | 1022.8 hPa | 0 mm | - | 122 W/m² | - |
| 1777908014 | 10° C | 60% | 1022.7 hPa | 0 mm | - | 96 W/m² | - |
| 1777907709 | 10° C | 59% | 1022.4 hPa | 0 mm | - | 99 W/m² | - |
| 1777907404 | 10° C | 58% | 1022.3 hPa | 0 mm | - | 107 W/m² | - |
| 1777907101 | 9.44° C | 59% | 1022.6 hPa | 0 mm | - | 108 W/m² | - |
| 1777906799 | 9.44° C | 57% | 1022.6 hPa | 0 mm | - | 98 W/m² | - |
| 1777906491 | 9.44° C | 56% | 1022.7 hPa | 0 mm | - | 103 W/m² | - |
| 1777906187 | 9.44° C | 56% | 1022.6 hPa | 0 mm | - | 91 W/m² | - |
| 1777905883 | 9.44° C | 55% | 1022.4 hPa | 0 mm | - | 87 W/m² | - |
| 1777905580 | 9.44° C | 55% | 1022.7 hPa | 0 mm | - | 78 W/m² | - |
| 1777905277 | 9.44° C | 53% | 1022.7 hPa | 0 mm | - | 73 W/m² | - |
| 1777904975 | 9.44° C | 53% | 1022.6 hPa | 0 mm | - | 79 W/m² | - |
| 1777904672 | 8.89° C | 53% | 1022.3 hPa | 0 mm | - | 71 W/m² | - |
| 1777904368 | 8.89° C | 53% | 1022.6 hPa | 0 mm | - | 68 W/m² | - |
| 1777904065 | 8.89° C | 53% | 1022.6 hPa | 0 mm | - | 65 W/m² | - |
| 1777903762 | 8.89° C | 53% | 1022.6 hPa | 0 mm | - | 57 W/m² | - |
| 1777903458 | 8.89° C | 55% | 1022.7 hPa | 0 mm | - | 52 W/m² | - |
| 1777903155 | 8.89° C | 54% | 1022.2 hPa | 0 mm | - | 52 W/m² | - |
| 1777902851 | 8.89° C | 55% | 1022.2 hPa | 0 mm | - | 45 W/m² | - |
| 1777902549 | 8.33° C | 55% | 1022.6 hPa | 0 mm | - | 38 W/m² | - |
* Rain latest hour (hover to see other rain measurements)
** Current wind speed in m/s (hover to see current wind gust speed)